User: anonymous   Login
Location: Avully
(45.9633°N, 6.0228°E)
Time: 07:38:34
(UTC+00:00)
Language:

H-2A R/B - Orbit

View from above orbital plane
View from above orbital plane
View from above satellite
View from above satellite

Ground track
Ground track

The orbit data is extracted from the following two-line orbital elements,

1 38341U 12025E   24202.81494961  .00005247  00000-0  55218-3 0  9993
2 38341  98.4217 116.4733 0051762  98.8026 261.9056 14.88884449659198
Epoch (UTC): 20 July 2024 19:33:31
Eccentricity: 0.0051762
inclination: 98.4217°
perigee height: 565 km
apogee height: 637 km
right ascension of ascending node: 116.4733°
argument of perigee: 98.8026°
revolutions per day: 14.88884449
mean anomaly at epoch: 261.9056°
orbit number at epoch: 65919

The dashed part of the orbit path shows where the satellite is in the earth's shadow,  

DLR